Powrót do katalogu

CHINASAT 5B

SINOSAT 1

AktywnyŁącznośćGEO
NORAD 25404·PAYLOAD·🇨🇳 China

Wystrzelony Jul 18, 1998 z Xichang Satellite Launch Center

Loading…

TLE

ŚwieżeSource: Space-Track

Epoka: Sep 14, 2026, 10:42 UTC

1 25404U 98044A   26257.44625126  .00000062  00000-0  00000-0 0  9990
2 25404  11.1433  44.4424 0006652 214.9247 323.5922  0.99194365102791

Śledź CHINASAT 5B w czasie rzeczywistym z AllMySat

Download on the App Store